Location: Newark
(53.3333°N, 83.7500°E)
Time: 10:03:05
(UTC+00:00)

Vanguard 2 - Pass Details

Date: 19 November 2019
Orbit: 553 x 2938 km, 32.9° (Epoch: 08 December)

Event Time Altitude Azimuth Distance (km) Brightness Sun altitude
Rises 04:28:39 0° 233° (SW) 4,564 11.7 14.0°
Reaches altitude 10° 04:34:53 10° 202° (SSW) 2,933 11.3 14.4°
Maximum altitude 04:36:40 11° 187° (S) 2,676 11.5 14.5°
Drops below altitude 10° 04:38:16 10° 172° (S) 2,592 12.2 14.6°
Sets 04:42:33 0° 136° (SE) 3,133 12.0 14.9°
